#timestamp,LO_Frequency,Hit,StdDev 
1578916815.3,286047002.3,P
1578916835.1,286047001.7,P
1578916855.8,286047003.6,Y
1578916875.7,286047004.1,P
1578916895.5,286047005.8,P
1578916915.4,286047006.6,P
1578916935.2,286047006.5,Y
1578916955.0,286047001.6,P
1578916955.9,286047001.6,N
1578916975.8,286047002.5,N
1578916995.6,286047000.1,N
1578917015.4,286047001.2,N
1578917035.3,286046998.2,N
1578917055.1,286046997.0,N
1578917075.9,286046998.7,N
1578917095.7,286046998.5,N
1578917115.5,286047002.6,N
1578917135.4,286046999.5,N
1578917155.2,286046996.6,N
1578917175.0,286046998.5,N
1578917175.9,286046998.5,N
1578917195.8,286046998.2,N
1578917215.6,286046998.8,N
1578917235.5,286046998.3,N
1578917255.3,286046996.7,N
1578917275.1,286046997.3,N
1578917295.9,286046997.0,N
1578917315.7,286046995.5,N
1578917335.5,286046996.2,N
1578917355.4,286046993.5,N
1578917375.2,286046995.0,N
1578917395.1,286046995.7,N
1578917396.0,286046995.7,N
1578917415.8,286046994.9,N
1578917435.6,286046995.4,N
1578917455.5,286046997.7,N
1578917475.3,286046999.4,N
1578917495.1,286046999.1,N
1578917515.9,286046999.1,N
1578917535.7,286046996.9,N
1578917555.6,286046999.6,N
1578917575.4,286046995.2,N
1578917595.2,286046995.1,N
1578917615.1,286046995.1,N
1578917616.0,286046995.1,N
1578917635.8,286046996.2,N
1578917655.6,286046993.6,Y
1578917675.5,286046996.5,P
1578917695.3,286046996.7,P
1578917715.2,286046997.4,P
1578917735.9,286046997.3,Y
1578917755.7,286047002.5,P
1578917775.6,286047005.8,N
1578917795.4,286047006.9,N
1578917815.2,286047006.3,N
1578917835.1,286047005.1,N
1578917836.0,286047005.1,N
1578917855.8,286047004.5,N
1578917875.7,286047005.9,N
1578917895.5,286047003.5,N
1578917915.3,286047003.3,N
1578917935.2,286047006.0,N
1578917955.0,286047005.5,N
1578917955.9,286047005.5,N
1578917975.7,286047003.4,N
1578917995.6,286047003.6,N
1578918015.4,286047001.6,N
1578918035.3,286047002.1,N
1578918055.1,286047000.5,N
1578918056.0,286047000.5,N
1578918075.8,286047001.1,N
1578918095.7,286047001.1,N
1578918115.5,286046998.8,N
1578918135.3,286046998.9,N
1578918155.2,286046999.5,N
1578918175.0,286046998.9,N
1578918175.9,286046998.9,N
1578918195.8,286046999.4,N
1578918215.6,286046998.3,N
1578918235.4,286046998.7,N
1578918255.3,286046999.8,N
1578918275.1,286047002.3,N
1578918295.8,286047000.3,N
1578918315.7,286047002.6,N
1578918335.5,286047001.9,N
1578918355.4,286047001.9,N
1578918375.2,286046999.8,N
1578918395.0,286047000.3,N
1578918395.9,286047000.3,N
1578918415.8,286047000.4,N
1578918435.6,286046998.5,N
1578918455.4,286047000.7,N
1578918475.3,286046998.7,N
1578918495.1,286046999.3,N
1578918515.9,286046999.0,N
1578918535.7,286046999.2,N
1578918555.5,286046998.3,N
1578918575.4,286047000.7,N
1578918595.2,286046998.4,N
1578918615.1,286046998.7,N
1578918616.0,286046998.7,N
1578918635.8,286046999.1,N
1578918655.6,286046999.3,N
1578918675.5,286046999.6,N
1578918695.3,286046999.3,N
1578918715.1,286046998.9,N
1578918735.9,286046996.9,N
1578918755.7,286046997.8,N
1578918775.6,286046996.9,N
1578918795.4,286046998.4,N
1578918815.2,286046998.7,N
1578918835.1,286046998.9,N
1578918836.0,286046998.9,N
1578918855.8,286047000.6,N
1578918875.6,286047002.7,N
1578918895.5,286047000.4,N
1578918915.3,286047001.0,N
1578918935.2,286046998.8,N
1578918955.9,286046998.8,N
1578918975.7,286046999.0,N
1578918995.6,286046999.3,N
1578919015.4,286046999.2,N
1578919035.2,286046997.0,N
1578919055.1,286046997.6,N
1578919056.0,286046997.6,N
1578919075.8,286046999.4,N
1578919095.7,286046999.4,N
1578919115.5,286046999.6,N
1578919135.3,286046997.4,N
1578919155.2,286046996.9,N
1578919175.0,286046997.7,N
1578919175.9,286046997.7,N
1578919195.8,286046997.5,N
1578919215.6,286046997.7,N
1578919235.4,286046996.8,N
1578919255.3,286046997.7,N
1578919275.1,286046995.4,Y
1578919295.8,286046999.3,P
1578919315.7,286046997.0,P
1578919335.5,286046997.0,P
1578919355.4,286046999.5,N
1578919375.2,286046998.4,N
1578919395.0,286046999.6,N
1578919395.9,286046999.6,N
1578919415.8,286046996.7,Y
1578919435.6,286046999.0,P
1578919455.4,286046998.6,P
1578919475.3,286046998.1,P
1578919495.1,286047000.8,N
1578919515.9,286047000.8,N
1578919535